Wainwright, AK

1:38 AM AKST on January 24, 2017 (GMT -0900)
Wiley Post-Will Rogers Memorial

Weather History for PABR - June, 2013

Change the Weather History Date:

Wednesday, June 12, 2013

  Actual Average Record
Temperature  
Mean Temperature 44 °F 35 °F  
Max Temperature 51 °F 39 °F 57 °F (1984)
Min Temperature 36 °F 30 °F 18 °F (1948)
Degree Days  
Heating Degree Days 21 30  
Month to date heating degree days 361 392  
Since 1 June heating degree days 361 392  
Since 1 July heating degree days 17796 18899  
Cooling Degree Days 0    
Month to date cooling degree days 0  
Year to date cooling degree days 0  
Since 1 June cooling degree days 0  
Moisture  
Dew Point 35 °F    
Average Humidity 0    
Maximum Humidity 0    
Minimum Humidity 0    
Precipitation  
Precipitation 0.00 in 0.01 in 0.18 in (1954)
Month to date precipitation 0.33 0.09  
Year to date precipitation 1.55 0.79  
Snow  
Snow 0.00 in 0.10 in 1.90 in (1954)
Month to date snowfall 0.2 0.5  
Since 1 June snowfall 0.2 0.5  
Since 1 July snowfall 62.7 37.5  
Snow Depth 0.00 in    
Sea Level Pressure  
Sea Level Pressure 30.15 in    
Wind  
Wind Speed 10 mph (WSW)    
Max Wind Speed 15 mph    
Max Gust Speed 17 mph    
Visibility 10 miles    
Events      
T = Trace of Precipitation, MM = Missing Value Source: NWS Daily Summary

Daily Weather History Graph

Daily Weather History Graph

Search for Another Location

Airport or City:

Trip Planner

Search our weather history database for the weather conditions in past years. The results will help you decide how hot, cold, wet, or windy it might be!

Date:

Astronomy

Dec. 31, 1969 Rise Set
Actual Time Sun does not rise Sun does not rise
Civil Twilight Sun does not rise Sun does not rise
Nautical Twilight Sun does not rise Sun does not rise
Astronomical Twilight Sun does not rise Sun does not rise
Moon 8:23 AM AKDT (6/12) 2:38 AM AKDT (6/12)
Length of Visible Light 24h 00m
Length of Day
24h 00m
Waxing Crescent, 15% of the Moon is Illuminated
Jun 12
Waxing Crescent
Jun 16
First Quarter
Jun 23
Full
Jun 29
Last Quarter
Jul 7
New

Hourly Weather History & Observations

Time (AKDT) Temp. Windchill Dew Point Humidity Pressure Visibility Wind Dir Wind Speed Gust Speed Precip Events Conditions
12:53 AM 39.0 °F 31.4 °F 32.0 °F 76% 30.17 in 10.0 mi SW 12.7 mph - N/A   Scattered Clouds
1:53 AM 37.9 °F 30.0 °F 32.0 °F 79% 30.17 in 10.0 mi WSW 12.7 mph - N/A   Partly Cloudy
2:53 AM 37.0 °F 29.8 °F 30.9 °F 79% 30.17 in 10.0 mi WSW 10.4 mph - N/A   Partly Cloudy
3:53 AM 36.0 °F 29.0 °F 30.9 °F 82% 30.17 in 10.0 mi WSW 9.2 mph - N/A   Partly Cloudy
4:53 AM 37.0 °F 30.4 °F 32.0 °F 82% 30.17 in 10.0 mi WSW 9.2 mph - N/A   Mostly Cloudy
5:53 AM 37.0 °F 30.4 °F 32.0 °F 82% 30.17 in 10.0 mi WSW 9.2 mph - N/A   Scattered Clouds
6:53 AM 37.0 °F 30.4 °F 32.0 °F 82% 30.17 in 10.0 mi WSW 9.2 mph - N/A   Partly Cloudy
7:53 AM 37.0 °F 31.0 °F 30.9 °F 79% 30.17 in 10.0 mi West 8.1 mph - N/A   Partly Cloudy
8:53 AM 37.9 °F 32.1 °F 33.1 °F 83% 30.17 in 10.0 mi WSW 8.1 mph - N/A   Clear
9:53 AM 41.0 °F 35.8 °F 35.1 °F 79% 30.17 in 10.0 mi WSW 8.1 mph - N/A   Clear
10:53 AM 43.0 °F 38.2 °F 36.0 °F 76% 30.16 in 10.0 mi WSW 8.1 mph - N/A   Clear
11:53 AM 44.1 °F 38.6 °F 36.0 °F 73% 30.17 in 10.0 mi West 10.4 mph - N/A   Clear
12:53 PM 45.0 °F 40.6 °F 37.0 °F 74% 30.16 in 10.0 mi SW 8.1 mph - N/A   Clear
1:53 PM 50.0 °F - 39.0 °F 66% 30.15 in 10.0 mi SW 13.8 mph - N/A   Clear
2:53 PM 48.0 °F - 37.9 °F 68% 30.15 in 10.0 mi WSW 10.4 mph - N/A   Scattered Clouds
3:53 PM 44.1 °F 38.1 °F 36.0 °F 73% 30.15 in 10.0 mi West 11.5 mph - N/A   Scattered Clouds
4:53 PM 44.1 °F 38.6 °F 37.9 °F 79% 30.14 in 10.0 mi West 10.4 mph - N/A   Partly Cloudy
5:53 PM 43.0 °F 37.2 °F 37.0 °F 80% 30.14 in 10.0 mi West 10.4 mph - N/A   Partly Cloudy
6:53 PM 44.1 °F 39.0 °F 37.9 °F 79% 30.14 in 10.0 mi West 9.2 mph - N/A   Clear
7:53 PM 45.0 °F 40.1 °F 39.9 °F 82% 30.13 in 10.0 mi WSW 9.2 mph - N/A   Clear
8:53 PM 43.0 °F 36.8 °F 37.9 °F 82% 30.13 in 10.0 mi WSW 11.5 mph - N/A   Clear
9:53 PM 41.0 °F 35.8 °F 36.0 °F 82% 30.13 in 10.0 mi WSW 8.1 mph - N/A   Clear
10:53 PM 39.9 °F 34.5 °F 36.0 °F 86% 30.13 in 10.0 mi WSW 8.1 mph - N/A   Clear
11:53 PM 37.9 °F 32.7 °F 34.0 °F 86% 30.13 in 10.0 mi WSW 6.9 mph - N/A   Clear